Infiniti Q45 1997-2001 (FY33)

Collector vehicles for sale.
User avatar
Feed
Site Admin
Posts: 3342
Joined: Fri Jul 31, 2020 9:57 am

Infiniti Q45 1997-2001 (FY33)

Post by Feed »

Looking for something else? Check the Directory for what you're after. Don't see it? Make a request.
Trying to sell one, test the waters, or just show off? Post it in our Readers' Rides section.
If you like this kind of thing, subscribe to our mailing list for updates. It's worth your time, I promise. Something broken? Have an idea? Come say hi in our Discord server.

Image Year Title Mileage Price City State Date Found
Image 1997 Infiniti Q45 Sedan 4D 180000 $2500 Palmetto Florida 2020-10-23
Image 1997 Infiniti q45 375000 $2500 Somis California 2020-10-23
Image 1997 Infiniti Q45 Sedan 4D 115000 $2650 Modesto California 2020-10-20
Image 1997 Infiniti q45 174000 $3000 Ruidoso New Mexico 2020-10-20
Image 1997 Infiniti Q45 Sedan 4D 210000 $1300 Holmdel New Jersey 2020-10-20
Image 1997 Infiniti Q45 Sedan 4D 200000 $1500 Dawson Georgia 2020-10-14
Image 1997 Infiniti Q45 Sedan 4D 130000 $2500 Poplar Grove Illinois 2020-10-14
Image 1997 Infiniti Q45 Sedan 4D 90000 $3500 Buford Georgia 2020-10-14
Image 1997 Infiniti q45 250000 $2000 Charlotte North Carolina 2020-10-14
Image 1997 Infiniti Q45 Sedan 4D 270000 $1000 Russellville Kentucky 2020-10-14
Image 1997 Infiniti Q45 Sedan 4D 273000 $4700 Clarksville Tennessee 2020-10-14
Image 1997 Infiniti Q45 Sedan 4D 189000 $1500 Cottage Grove Wisconsin 2020-10-14
Image 1997 Infiniti Q45 Sedan 4D 207000 $1750 Keansburg New Jersey 2020-10-14
Image 1998 Infiniti Q45 Sedan 4D 24000 $1700 Birmingham Alabama 2020-10-23
Image 1998 Infiniti q45 69000 $1200 Madison Tennessee 2020-10-23
Image 1998 Infiniti q45 137000 $1500 Richardson Texas 2020-10-20
Image 1998 Infiniti Q45 Sedan 4D 23000 $1200 Ormond Beach Florida 2020-10-14
Image 1998 Infiniti Q45 Sedan 4D 245000 $700 Dallas Texas 2020-10-14
Image 1998 Infiniti q45 130000 $1500 Richardson Texas 2020-10-14
Image 1998 Infiniti Q45 Sedan 4D 93000 $4000 Austin Texas 2020-10-14
Image 1998 Infiniti Q45 Sedan 4D 225000 $1800 Lakewood Washington 2020-10-14
Image 1998 Infiniti Q45 Sedan 4D 166000 $3000 McMinnville Tennessee 2020-10-14
Image 1998 Infiniti Q45 Sedan 4D 156000 $5000 Goose Creek South Carolina 2020-10-14
Image 1998 Infiniti Q45 Sedan 4D 260000 $3500 Salinas California 2020-10-14
Image 1999 Infiniti Q45 Sedan 4D 122000 $1234 Colorado Springs CO 2020-10-27
Image 1999 Infiniti Q45 Sedan 4D 251000 $2250 Indianapolis IN 2020-10-27
Image 1999 Infiniti Q45 Sedan 4D 107000 $1234 Pearl Mississippi 2020-10-27
Image 1999 Infiniti 1999 infiniti q45 17000 $2500 Las Vegas Nevada 2020-10-23
Image 1999 Infiniti Q45 Sedan 4D 157000 $2000 Kirkland Washington 2020-10-20
Image 1999 Infiniti Q45 Sedan 4D 163000 $900 Cerritos California 2020-10-20
Image 1999 Infiniti q45t 255000 $2200 Moorhead Minnesota 2020-10-20
Image 1999 Infiniti Q45 Sedan 4D 159000 $3200 Orlando Florida 2020-10-20
Image 1999 Infiniti Q45 Sedan 4D 170000 $1000 Orlando Florida 2020-10-20
Image 1999 Infiniti Q45 Sedan 4D 170000 $1000 Orlando Florida 2020-10-14
Image 1999 Infiniti q45t 108000 $5000 Brooksville Florida 2020-10-14
Image 1999 Infiniti Q45 Sedan 4D 156000 $2500 North Hollywood California 2020-10-14
Image 1999 Infiniti Q45 Sedan 4D 164000 $4750 Lake Havasu City Arizona 2020-10-14
Image 1999 Infiniti Q45 Sedan 4D 260000 $1350 Los Angeles California 2020-10-14
Image 1999 Infiniti Q45 Sedan 4D 126000 $2750 Fort Worth Texas 2020-10-14
Image 1999 Infiniti Q45 Sedan 4D 180000 $1500 Grand Prairie Texas 2020-10-14
Image 1999 Infiniti q45 98000 $3500 Austin Texas 2020-10-14
Image 1999 Infiniti Q45 Sedan 4D 175000 $5000 Auburn Washington 2020-10-14
Image 1999 Infiniti Q45 Sedan 4D 252000 $1500 Griffin Georgia 2020-10-14
Image 1999 Infiniti Q45 Sedan 4D 14000 $2000 Norcross Georgia 2020-10-14
Image 1999 Infiniti q45 138000 $2400 Trenton Georgia 2020-10-14
Image 1999 Infiniti Q45 Sedan 4D 224000 $1800 Memphis Tennessee 2020-10-14
Image 1999 Infiniti Q45 Sedan 4D 142000 $3750 Long Beach New York 2020-10-14
Image 1999 Infiniti Q45 Sedan 4D 290000 $1200 Star Prairie Wisconsin 2020-10-14
Image 2000 Infiniti Q45 Sedan 4D 114000 $3000 North Hollywood California 2020-10-27
Image 2000 Infiniti Q45 Sedan 4D 79000 $3000 Sneads Ferry North Carolina 2020-10-27
Image 2000 Infiniti q45 207000 $1200 Port St Lucie Florida 2020-10-23
Image 2000 Infiniti q45 Good 199000 $4000 St Petersburg Florida 2020-10-23
Image 2000 Infiniti q45 LUXURY PERFORMANCE SDN 97000 $7900 Tempe Arizona 2020-10-23
Image 2000 Infiniti Q45 Sedan 4D 140000 $1000 Tucson Arizona 2020-10-23
Image 2000 Infiniti q45 LUXURY PERFORMANCE SDN 97000 $7900 Tempe Arizona 2020-10-20
Image 2000 Infiniti Q45 Sedan 4D 155000 $2000 Waukegan Illinois 2020-10-20
Image 2000 Infiniti Q45 Sedan 4D 58000 $2450 Erie Colorado 2020-10-20
Image 2000 Infiniti Q45 Sedan 4D 117000 $2900 Cape Coral Florida 2020-10-14
Image 2000 Infiniti q45 LUXURY PERFORMANCE SDN 97000 $7900 Tempe Arizona 2020-10-14
Image 2000 Infiniti Q45 Sedan 4D 235000 $2070 Franklin North Carolina 2020-10-14
Image 2000 Infiniti Q45 Sedan 4D 187000 $4500 Auburn California 2020-10-14
Image 2001 Infiniti q45 143000 $2500 The Dalles Oregon 2020-10-20
Image 2001 Infiniti Q45 Sedan 4D 220000 $1500 Irvington New Jersey 2020-10-14
Image 2001 Infiniti Q45 Sedan 4D 135000 $2700 Springfield Massachusetts 2020-10-14
Image 2001 Infiniti Q45 Sedan 4D 140000 $2500 Washington DC 2020-10-14
Image 2001 Infiniti Q45 Sedan 4D 191000 $1800 Surprise Arizona 2020-10-14
Image 2001 Infiniti Q45 Sedan 4D 147000 $3500 Somerset Kentucky 2020-10-14
Image 2001 Infiniti Q45 Sedan 4D 236000 $2790 Birmingham Alabama 2020-10-14
Image 2001 Infiniti Q45 Sedan 4D 175000 $1000 North Little Rock Arkansas 2020-10-14
Image



Post Reply